Flag for Germany Weather past 2 weeks in Stassfurt, Saxony-Anhalt, Germany

Now
70 °F

Scattered clouds.


Feels Like: 76 °F
Forecast: 55 / 81 °F
Wind: 2 mph from North

Location: Magdeburg

Current Time: Jun 30, 2015 at 10:24:06 AM

Latest Report: Jun 30, 2015 at 10:00 AM


Visibility: 28 mi

Pressure: 30.22 "Hg

Humidity: 57%

Dew point: 54 °F

Location of StassfurtLocation

Historic Weather in Stassfurt — Graph

°F

Stassfurt temperature yesterday

Maximum temperature yesterday: 80 °F (at 6:00 PM)
Minimum temperature yesterday: 59 °F (at 6:00 AM)
Average temperature yesterday: 70 °F

Past Weeks' High & Low Weather Summary

 TemperatureHumidityPressure
High80 °F (Jun 29, 6:00 PM)96% (Jun 23, 6:00 AM)30.30 "Hg (Jun 23, 6:00 AM)
Low44 °F (Jun 16, 6:00 AM)33% (Jun 15, 6:00 PM)29.63 "Hg (Jun 23, 2:00 AM)
Average60 °F69%30.04 "Hg
* Reported Jun 15 9:00 AM — Jun 30 9:00 AM, Stassfurt, Weather by CustomWeather, © 2015

Note: Actual official high and low records may vary slightly from our data, if they occured in-between our weather recording intervals... More about our weather records

Advertising

Stassfurt weather history for previous 24 hours

 ConditionsComfort  
Time TempWeatherWind HumidityBarometerVisibility
9:00 AM
Tue, Jun 30
65 °FScattered clouds.2 mph65%30.22 "Hg25 mi
8:00 AM62 °FPartly sunny.3 mph74%30.20 "Hg25 mi
7:00 AM59 °FPartly sunny.1 mph85%30.19 "Hg22 mi
6:00 AM58 °FPartly sunny.1 mph87%30.18 "Hg16 mi
5:00 AM58 °FOvercast.2 mph88%30.17 "Hg11 mi
4:00 AM58 °FClear.2 mph87%30.16 "Hg13 mi
3:00 AM60 °FPassing clouds.1 mph83%30.17 "Hg16 mi
2:00 AM61 °FPassing clouds.1 mph80%30.17 "Hg18 mi
1:00 AM62 °FOvercast.1 mph76%30.16 "Hg22 mi
12:00 AM63 °FPassing clouds.1 mph77%30.16 "Hg19 mi
10:00 PM
Mon, Jun 29
69 °FPassing clouds.1 mph66%30.14 "Hg19 mi
9:00 PM72 °FOvercast.1 mph60%30.12 "Hg37 mi
8:00 PM78 °FOvercast.1 mph45%30.10 "Hg37 mi
7:00 PM80 °FPartly sunny.2 mph43%30.09 "Hg37 mi
6:00 PM80 °FPartly sunny.3 mph40%30.09 "Hg37 mi
4:00 PM80 °FPartly sunny.3 mph39%30.09 "Hg37 mi
3:00 PM79 °FScattered clouds.3 mph42%30.09 "Hg37 mi
2:00 PM78 °FPartly sunny.3 mph46%30.10 "Hg37 mi
1:00 PM77 °FScattered clouds.5 mph44%30.11 "Hg28 mi
12:00 PM75 °FPassing clouds.2 mph50%30.11 "Hg28 mi
10:00 AM69 °FScattered clouds.3 mph58%30.13 "Hg25 mi
Weather by CustomWeather, © 2015

See weather overviewHow to use our weather pages